TimeCST,TemperatureF,Dew PointF,Humidity,Sea Level PressureIn,VisibilityMPH,Wind Direction,Wind SpeedMPH,Gust SpeedMPH,PrecipitationIn,Events,Conditions,WindDirDegrees,DateUTC
12:53 AM,28.9,18.0,64,30.10,10.0,SSE,5.8,-,N/A,,Overcast,150,2013-02-17 06:53:00
1:53 AM,30.0,19.0,64,30.09,10.0,SSE,6.9,-,N/A,,Overcast,150,2013-02-17 07:53:00
2:53 AM,30.0,19.0,64,30.08,10.0,SSE,8.1,-,N/A,,Overcast,150,2013-02-17 08:53:00
3:53 AM,28.9,19.9,69,30.08,10.0,SE,5.8,-,N/A,,Mostly Cloudy,140,2013-02-17 09:53:00
4:53 AM,27.0,19.0,72,30.07,10.0,SE,5.8,-,N/A,,Clear,130,2013-02-17 10:53:00
5:53 AM,27.0,19.0,72,30.06,10.0,SE,8.1,-,N/A,,Clear,140,2013-02-17 11:53:00
7:53 AM,26.1,19.9,78,30.05,10.0,SSE,9.2,-,N/A,,Clear,150,2013-02-17 13:53:00
8:53 AM,30.9,21.0,67,30.03,10.0,SSE,12.7,-,N/A,,Clear,150,2013-02-17 14:53:00
9:53 AM,35.1,19.9,54,30.02,10.0,SSE,13.8,-,N/A,,Clear,150,2013-02-17 15:53:00
10:53 AM,37.9,19.0,47,30.00,10.0,SE,18.4,-,N/A,,Clear,140,2013-02-17 16:53:00
11:53 AM,42.1,19.9,41,29.96,10.0,SSE,11.5,23.0,N/A,,Clear,160,2013-02-17 17:53:00
12:53 PM,45.0,21.0,39,29.92,10.0,SSE,12.7,20.7,N/A,,Clear,150,2013-02-17 18:53:00
1:53 PM,46.9,24.1,41,29.88,10.0,SSE,13.8,24.2,N/A,,Clear,160,2013-02-17 19:53:00
2:53 PM,48.0,25.0,41,29.84,10.0,SSE,15.0,26.5,N/A,,Clear,150,2013-02-17 20:53:00
3:53 PM,48.0,26.1,42,29.82,10.0,SSE,18.4,26.5,N/A,,Clear,150,2013-02-17 21:53:00
4:53 PM,48.0,27.0,44,29.80,10.0,SSE,18.4,24.2,N/A,,Clear,150,2013-02-17 22:53:00
5:53 PM,46.0,28.0,50,29.79,10.0,SSE,12.7,-,N/A,,Clear,150,2013-02-17 23:53:00
6:53 PM,44.1,27.0,51,29.77,10.0,SE,11.5,-,N/A,,Clear,140,2013-02-18 00:53:00
7:53 PM,43.0,27.0,53,29.75,10.0,SSE,11.5,-,N/A,,Clear,150,2013-02-18 01:53:00
8:53 PM,42.1,26.1,53,29.74,10.0,SSE,12.7,-,N/A,,Clear,150,2013-02-18 02:53:00
9:53 PM,42.1,26.1,53,29.73,10.0,SSE,12.7,-,N/A,,Clear,150,2013-02-18 03:53:00
11:53 PM,41.0,27.0,57,29.68,10.0,SSE,10.4,18.4,N/A,,Clear,160,2013-02-18 05:53:00